Location: Newark
(53.3469°N, 7.1606°E)
Time: 20:05:42
(UTC+00:00)

N. Korean satellite - Pass Details

Date: 20 November 2019
Orbit: 456 x 506 km, 97.2° (Epoch: 06 December)

Event Time Altitude Azimuth Distance (km) Brightness Sun altitude
Rises 16:20:33 0° 165° (SSE) 2,572 10.3 -7.7°
Reaches altitude 10° 16:22:36 10° 165° (SSE) 1,700 9.4 -8.0°
Maximum altitude 16:26:16 90° 59° (ENE) 511 6.6 -8.5°
Drops below altitude 10° 16:30:01 10° 347° (NNW) 1,732 9.3 -9.0°
Sets 16:32:08 0° 347° (NNW) 2,625 10.2 -9.3°
